This is the latest recevied weather packets stored in our database for station/object DH1NAI-6. If no packets are shown the sender has not sent any weather packets the latest 10 day(s).
| Time | Temp. | Humidity | Pressure | Rain* | Wind** | Luminosity | Snow |
|---|---|---|---|---|---|---|---|
| 1787886292 | 19.44° C | 80% | 1011.9 hPa | 0 mm | - | 0 W/m² | - |
| 1787885685 | 19.44° C | 81% | 1012 hPa | 0 mm | - | 0 W/m² | - |
| 1787885071 | 19.44° C | 81% | 1012.2 hPa | 0 mm | - | 0 W/m² | - |
| 1787884469 | 19.44° C | 81% | 1012.4 hPa | 0 mm | - | 0 W/m² | - |
| 1787883860 | 18.89° C | 81% | 1012.2 hPa | 0 mm | - | 0 W/m² | - |
| 1787883236 | 18.89° C | 83% | 1010.7 hPa | 0 mm | - | 0 W/m² | - |
| 1787882628 | 19.44° C | 80% | 1010.8 hPa | 0 mm | - | 0 W/m² | - |
| 1787882004 | 19.44° C | 79% | 1010.6 hPa | 0 mm | - | 0 W/m² | - |
| 1787881380 | 19.44° C | 79% | 1010.5 hPa | 0 mm | - | 0 W/m² | - |
| 1787880757 | 19.44° C | 78% | 1010.1 hPa | 0 mm | - | 0 W/m² | - |
| 1787880148 | 19.44° C | 79% | 1010.2 hPa | 0 mm | - | 0 W/m² | - |
| 1787879541 | 19.44° C | 79% | 1010.5 hPa | 0 mm | - | 0 W/m² | - |
| 1787878932 | 19.44° C | 78% | 1010.8 hPa | 0 mm | - | 0 W/m² | - |
| 1787878325 | 19.44° C | 78% | 1010.6 hPa | 0 mm | - | 0 W/m² | - |
| 1787877716 | 19.44° C | 78% | 1010.5 hPa | 0 mm | - | 0 W/m² | - |
| 1787877092 | 19.44° C | 78% | 1010.7 hPa | 0 mm | - | 0 W/m² | - |
| 1787876492 | 20° C | 76% | 1010.8 hPa | 0 mm | - | 0 W/m² | - |
| 1787875876 | 20° C | 77% | 1011.1 hPa | 0 mm | - | 0 W/m² | - |
| 1787875268 | 20.56° C | 76% | 1011.3 hPa | 0 mm | - | 0 W/m² | - |
| 1787874660 | 20° C | 76% | 1011.3 hPa | 0 mm | - | 0 W/m² | - |
| 1787874052 | 20.56° C | 75% | 1011.6 hPa | 0 mm | - | 0 W/m² | - |
| 1787873444 | 20.56° C | 75% | 1011.3 hPa | 0 mm | - | 0 W/m² | - |
| 1787872831 | 20.56° C | 75% | 1011.6 hPa | 0 mm | - | 0 W/m² | - |
| 1787872212 | 20.56° C | 75% | 1011.7 hPa | 0 mm | - | 0 W/m² | - |
| 1787871605 | 21.11° C | 74% | 1012.1 hPa | 0 mm | - | 0 W/m² | - |
* Rain latest hour (hover to see other rain measurements)
** Current wind speed in m/s (hover to see current wind gust speed)